TimeEST,TemperatureF,Dew PointF,Humidity,Sea Level PressureIn,VisibilityMPH,Wind Direction,Wind SpeedMPH,Gust SpeedMPH,PrecipitationIn,Events,Conditions,WindDirDegrees,DateUTC
12:53 AM,55.9,35.1,45,30.22,10.0,SSE,11.5,-,N/A,,Clear,160,2012-11-12 05:53:00
1:53 AM,55.0,35.1,47,30.21,10.0,SSE,8.1,-,N/A,,Clear,150,2012-11-12 06:53:00
2:53 AM,55.0,35.1,47,30.21,10.0,South,8.1,-,N/A,,Clear,170,2012-11-12 07:53:00
3:53 AM,55.0,36.0,49,30.21,10.0,SSE,10.4,-,N/A,,Clear,160,2012-11-12 08:53:00
4:53 AM,55.0,37.0,51,30.22,10.0,South,8.1,-,N/A,,Clear,170,2012-11-12 09:53:00
5:53 AM,55.0,37.9,53,30.22,10.0,SSE,8.1,-,N/A,,Clear,160,2012-11-12 10:53:00
6:53 AM,55.0,39.0,55,30.20,10.0,SSE,6.9,-,N/A,,Clear,160,2012-11-12 11:53:00
7:53 AM,55.0,41.0,59,30.20,10.0,SSE,9.2,-,N/A,,Clear,160,2012-11-12 12:53:00
8:53 AM,55.9,43.0,62,30.19,10.0,SSE,10.4,18.4,N/A,,Clear,150,2012-11-12 13:53:00
9:53 AM,57.9,45.0,62,30.19,10.0,South,12.7,23.0,N/A,,Clear,170,2012-11-12 14:53:00
10:53 AM,61.0,46.0,58,30.17,10.0,South,15.0,21.9,N/A,,Clear,180,2012-11-12 15:53:00
11:53 AM,63.0,46.0,54,30.13,10.0,South,12.7,18.4,N/A,,Mostly Cloudy,180,2012-11-12 16:53:00
12:53 PM,63.0,46.0,54,30.08,10.0,South,11.5,25.3,N/A,,Mostly Cloudy,170,2012-11-12 17:53:00
1:53 PM,63.0,46.9,56,30.04,10.0,SSE,15.0,26.5,N/A,,Mostly Cloudy,160,2012-11-12 18:53:00
2:53 PM,63.0,46.9,56,30.01,10.0,SSE,11.5,27.6,N/A,,Mostly Cloudy,160,2012-11-12 19:53:00
3:53 PM,62.1,46.9,58,29.99,10.0,SSE,13.8,27.6,N/A,,Overcast,150,2012-11-12 20:53:00
4:53 PM,61.0,46.9,60,29.96,10.0,SSE,13.8,20.7,N/A,,Mostly Cloudy,160,2012-11-12 21:53:00
5:53 PM,60.1,48.0,64,29.97,10.0,South,8.1,25.3,0.00,Rain,Light Rain,170,2012-11-12 22:53:00
6:38 PM,59.0,48.9,69,30.01,8.0,SW,13.8,21.9,0.00,Rain,Light Rain,230,2012-11-12 23:38:00
6:46 PM,51.1,46.0,83,30.02,2.5,West,15.0,25.3,0.07,Rain,Heavy Rain,280,2012-11-12 23:46:00
6:50 PM,50.0,46.4,87,30.02,1.8,West,15.0,25.3,0.13,Rain,Heavy Rain,280,2012-11-12 23:50:00
6:53 PM,50.0,46.0,86,30.03,1.8,West,8.1,25.3,0.17,Rain,Heavy Rain,280,2012-11-12 23:53:00
6:58 PM,50.0,45.0,83,30.04,2.0,West,11.5,24.2,0.02,Rain,Heavy Rain,280,2012-11-12 23:58:00
7:02 PM,48.9,45.0,86,30.04,3.0,West,13.8,20.7,0.03,Rain,Rain,280,2012-11-13 00:02:00
7:21 PM,48.0,44.1,86,30.06,4.0,WNW,19.6,23.0,0.09,Rain,Rain,300,2012-11-13 00:21:00
7:43 PM,44.1,39.9,85,30.08,6.0,WNW,20.7,28.8,0.14,Rain,Light Rain,300,2012-11-13 00:43:00
7:53 PM,44.1,39.0,82,30.10,6.0,WNW,16.1,27.6,0.14,Rain,Rain,290,2012-11-13 00:53:00
8:53 PM,41.0,37.0,86,30.16,6.0,West,10.4,-,0.05,Rain,Light Rain,280,2012-11-13 01:53:00
9:06 PM,41.0,36.0,82,30.16,7.0,West,13.8,-,0.01,Rain,Light Rain,270,2012-11-13 02:06:00
9:29 PM,39.0,35.1,86,30.16,8.0,West,12.7,18.4,0.03,Rain,Light Rain,280,2012-11-13 02:29:00
9:53 PM,39.0,35.1,86,30.18,5.0,West,13.8,21.9,0.04,Rain,Light Rain,280,2012-11-13 02:53:00
10:37 PM,37.9,33.1,83,30.20,10.0,WSW,10.4,23.0,0.03,Rain,Light Rain,250,2012-11-13 03:37:00
10:50 PM,37.4,33.8,87,30.19,10.0,WSW,11.5,23.0,0.03,,Overcast,250,2012-11-13 03:50:00
10:53 PM,37.9,30.9,76,30.21,10.0,West,11.5,28.8,0.03,Rain,Light Rain,260,2012-11-13 03:53:00
11:09 PM,36.0,30.9,82,30.20,2.5,WSW,9.2,23.0,0.01,Snow,Light Snow,250,2012-11-13 04:09:00
11:16 PM,35.1,30.9,85,30.20,1.8,WSW,8.1,-,0.01,Snow,Light Snow,250,2012-11-13 04:16:00
11:27 PM,34.0,30.9,89,30.19,1.5,West,6.9,-,0.01,Snow,Light Snow,260,2012-11-13 04:27:00
11:34 PM,34.0,30.9,89,30.20,2.5,West,9.2,-,0.01,Snow,Light Snow,270,2012-11-13 04:34:00
11:41 PM,34.0,30.0,85,30.21,6.0,West,8.1,-,0.01,Snow,Light Snow,270,2012-11-13 04:41:00
11:53 PM,34.0,30.0,85,30.23,9.0,West,9.2,-,0.01,Snow,Light Snow,270,2012-11-13 04:53:00